Location: Unspecified
(0.0000°N, 0.0000°E)
Time: 15:01:14
(UTC+00:00)

Altair - All Passes

Search period start: 21 February 2019 00:00
Search period end: 03 March 2019 00:00
Orbit: 1502 x 1682 km, 47.2° (Epoch: 20 February)

Date Brightness Start Highest point End Pass type
(mag) Time Alt. Az. Time Alt. Az. Time Alt. Az.
21 Feb - 01:07:18 10° SSW 01:16:18 59° SE 01:25:24 10° NE night (unlit)
21 Feb - 03:13:20 10° WSW 03:20:51 28° NW 03:28:33 10° N visible
21 Feb - 11:53:30 10° N 12:01:31 26° NE 12:09:26 10° E daylight
21 Feb - 13:56:17 10° NW 14:06:21 69° SW 14:16:15 10° SSE daylight
21 Feb - 16:07:54 10° WSW 16:11:34 12° SW 16:15:12 10° SSW daylight
22 Feb - 00:42:18 10° SSW 00:51:09 52° SE 01:00:05 10° NE night (unlit)
22 Feb - 02:47:48 10° WSW 02:55:39 32° NW 03:03:42 10° N visible
22 Feb - 11:28:44 10° N 11:36:15 23° NE 11:43:42 10° E daylight
22 Feb - 13:31:01 10° NW 13:41:10 77° SW 13:51:09 10° SE daylight
22 Feb - 15:41:19 10° WSW 15:46:15 15° SW 15:51:10 10° SSW daylight
23 Feb - 00:17:20 10° SSW 00:26:01 46° SE 00:34:44 10° ENE night (unlit)
23 Feb - 02:22:20 10° WSW 02:30:28 36° NW 02:38:49 10° NNE visible
23 Feb - 11:04:02 10° N 11:10:59 20° NE 11:17:52 10° E daylight
23 Feb - 13:05:47 10° NW 13:15:58 85° SW 13:26:01 10° SE daylight
23 Feb - 15:15:05 10° W 15:20:58 17° SW 15:26:49 10° S daylight
23 Feb - 23:52:24 10° SSW 00:00:52 41° SE 00:09:21 10° ENE night (unlit)
24 Feb - 01:56:55 10° WSW 02:05:18 40° NW 02:13:53 10° NNE night (unlit)
24 Feb - 10:39:26 10° N 10:45:42 18° NE 10:51:55 10° E daylight
24 Feb - 12:40:35 10° NW 12:50:46 87° NE 13:00:51 10° SE daylight
24 Feb - 14:49:03 10° W 14:55:42 20° SW 15:02:18 10° S daylight
24 Feb - 23:27:30 10° SSW 23:35:43 36° SE 23:43:55 10° ENE night (unlit)
25 Feb - 01:31:33 10° WSW 01:40:09 45° NW 01:48:55 10° NNE night (unlit)
25 Feb - 10:14:59 10° NNE 10:20:24 15° NE 10:25:47 10° ENE daylight
25 Feb - 12:15:24 10° NW 12:25:35 79° NE 12:35:39 10° SE daylight
25 Feb - 14:23:09 10° W 14:30:26 22° SW 14:37:40 10° S daylight
25 Feb - 23:02:37 10° S 23:10:32 32° SE 23:18:25 10° ENE night (unlit)
26 Feb - 01:06:13 10° WSW 01:15:00 51° NW 01:23:56 10° NNE night (unlit)
26 Feb - 09:50:46 10° NNE 09:55:05 13° NE 09:59:24 10° ENE daylight
26 Feb - 11:50:16 10° NNW 12:00:23 71° NE 12:10:25 10° SE daylight
26 Feb - 13:57:22 10° W 14:05:11 25° SW 14:12:58 10° S daylight
26 Feb - 22:37:48 10° S 22:45:22 28° SE 22:52:53 10° ENE visible
27 Feb - 00:40:55 10° SW 00:49:51 58° NW 00:58:54 10° NNE night (unlit)
27 Feb - 09:27:02 10° NNE 09:29:45 11° NE 09:32:27 10° ENE daylight
27 Feb - 11:25:10 10° NNW 11:35:11 64° NE 11:45:09 10° SE daylight
27 Feb - 13:31:39 10° WNW 13:39:57 29° SW 13:48:10 10° S daylight
27 Feb - 22:13:01 10° S 22:20:11 25° SE 22:27:16 10° E visible
28 Feb - 00:15:40 10° SW 00:24:43 65° NW 00:33:51 10° NNE night (unlit)
28 Feb - 02:29:15 10° NW 02:29:56 10° NW 02:30:35 10° NW night (unlit)
28 Feb - 11:00:06 10° NNW 11:09:59 58° NE 11:19:50 10° SE daylight
28 Feb - 13:06:02 10° WNW 13:14:42 32° SW 13:23:21 10° S daylight
28 Feb - 21:48:18 10° S 21:54:59 22° SE 22:01:35 10° E visible
28 Feb - 23:50:27 10° SW 23:59:35 73° NW 00:08:47 10° NNE night (unlit)
01 Mar - 02:01:25 10° WNW 02:04:38 12° NW 02:07:51 10° NNW night (unlit)
01 Mar - 10:35:04 10° NNW 10:44:47 51° NE 10:54:29 10° ESE daylight
01 Mar - 12:40:29 10° WNW 12:49:29 36° SW 12:58:27 10° SSE daylight
01 Mar - 21:23:40 10° S 21:29:46 19° SE 21:35:48 10° E visible
01 Mar - 23:25:15 10° SW 23:34:27 81° NW 23:43:41 10° NE night (unlit)
02 Mar - 01:34:58 10° WNW 01:39:22 14° NW 01:43:48 10° NNW night (unlit)
02 Mar - 10:10:04 10° NNW 10:19:34 46° NE 10:29:05 10° ESE daylight
02 Mar - 12:14:59 10° WNW 12:24:15 41° SW 12:33:31 10° SSE daylight
02 Mar - 20:59:08 10° S 21:04:32 17° SE 21:09:52 10° E visible
02 Mar - 23:00:06 10° SW 23:09:19 90° NW 23:18:33 10° NE visible
